Probability
10 26 84 84 77 71 74 68 71 68 65 68 68 55 52 61 68 68 71 65 68 55 58 58 61 68 74 74 74 68 71 84 81 81 84 84 84 84 84 74 74 55 77
10 26 84 81 74 68 74 68 74 74 74 71 61 65 55 61 58 58 65 68 65 61 58 52 61 65 65 71 74 77 77 77 77 74 74 74 74 74 68 71 58 45 68
10 19 52 77 71 65 68 71 74 71 74 68 68 68 61 52 58 65 65 61 65 61 68 48 61 58 61 77 74 68 71 74 68 68 65 42 52 77 68 61 61 65 65
13 23 32 68 65 58 65 68 74 71 61 65 58 65 61 48 55 61 61 61 61 65 68 55 58 52 65 71 68 71 68 65 55 52 10 6 23 58 61 65 58 55 61
13 16 26 58 58 61 68 71 74 71 61 55 58 58 58 52 52 55 65 58 61 61 58 55 55 48 55 65 65 61 65 52 52 26 3 0 19 58 61 65 55 52 58
10 19 42 58 58 58 68 65 71 68 55 52 52 55 55 52 55 58 61 58 55 52 55 55 58 52 52 45 55 52 61 55 32 0 3 3 19 58 65 55 52 55 55
6 19 42 58 55 55 58 65 68 48 45 52 45 45 45 45 45 52 55 55 45 45 48 45 55 45 52 35 39 45 52 45 0 0 3 3 23 71 58 58 48 45 42
10 16 32 52 55 61 61 61 65 52 48 48 48 45 45 45 45 45 48 55 45 45 48 48 65 52 39 45 42 48 39 35 3 0 3 3 48 74 58 55 48 39 39
6 10 19 32 39 55 61 61 61 58 55 52 48 52 45 45 42 42 45 48 42 48 55 55 52 45 42 39 45 52 55 42 0 0 3 10 65 74 58 61 45 39 39
6 6 10 13 19 23 29 48 55 52 52 48 52 55 48 42 39 39 52 52 48 48 48 48 39 26 39 48 42 42 48 19 0 0 0 13 71 68 55 55 58 39 32
3 3 6 13 13 16 13 26 29 45 48 48 48 48 35 13 13 19 29 55 48 45 45 39 42 35 39 39 48 55 26 6 3 3 3 32 65 61 52 55 48 35 35
6 6 6 6 10 10 13 16 16 23 19 23 23 23 6 3 3 10 45 45 48 52 48 45 42 32 23 6 6 13 6 6 3 3 3 48 65 52 52 45 52 39 42
6 6 6 6 6 6 3 6 10 10 10 13 10 10 6 3 10 10 6 10 19 26 16 16 23 6 6 3 3 3 3 6 3 3 3 61 65 61 52 48 45 42 35
10 10 10 6 6 6 6 6 6 6 6 13 10 6 3 3 6 6 6 6 3 3 3 3 3 3 6 6 3 3 3 10 3 3 3 55 61 68 61 52 42 35 32
10 13 6 6 6 6 10 6 3 3 3 10 10 3 3 0 6 6 6 6 3 6 3 3 3 3 3 3 3 3 6 6 6 3 3 52 65 61 55 52 52 58 42
10 10 10 6 6 3 6 6 6 6 0 10 6 10 10 3 6 10 6 6 6 3 3 3 3 3 3 3 6 6 3 6 6 3 3 29 55 58 55 48 52 42 48
10 10 10 10 6 3 6 6 3 10 3 3 3 3 6 6 6 6 3 3 3 0 3 0 0 3 6 3 6 6 10 6 10 0 3 6 23 45 48 48 52 45 48
13 10 10 16 10 10 6 10 10 10 10 10 3 6 6 6 6 3 3 6 3 3 3 0 3 10 3 3 3 10 10 10 3 3 3 0 6 16 32 45 52 55 55
13 13 10 10 10 10 13 10 13 6 6 6 6 16 13 6 3 6 6 6 6 6 6 6 3 0 3 6 10 10 10 6 6 10 3 6 6 6 16 26 55 55 52
19 16 10 10 16 10 13 13 10 6 3 6 6 19 6 6 6 6 10 10 6 6 6 6 6 6 10 10 13 13 6 6 3 6 6 6 6 6 3 3 10 39 52
19 23 16 16 19 26 10 6 3 6 3 6 10 16 13 10 16 13 16 10 10 6 6 6 6 6 6 6 3 3 3 3 3 3 3 3 6 10 3 3 3 6 13
19 16 16 19 19 19 16 6 6 6 10 10 10 16 10 16 13 13 10 6 10 13 10 6 6 6 3 3 6 6 3 0 0 3 3 3 6 6 10 10 3 3 6
26 19 19 19 26 23 16 3 10 0 3 6 6 13 13 16 16 10 13 16 16 13 10 6 3 6 3 3 3 6 0 0 0 0 0 3 3 3 3 3 3 3 3
23 29 19 29 26 29 23 23 6 0 3 3 3 10 13 16 13 13 3 6 3 3 6 6 10 3 6 3 6 3 3 3 3 0 0 0 0 0 3 6 6 6 3
32 32 32 32 29 32 23 23 16 13 6 6 6 6 13 13 13 16 13 6 3 3 13 13 13 6 6 10 6 6 6 3 0 3 0 0 0 0 0 3 3 6 3
32 42 32 32 35 39 45 26 16 13 6 6 6 6 10 16 13 19 26 13 6 10 13 16 16 13 6 13 3 6 6 3 3 3 0 0 0 0 0 3 3 3 0
Height
5882 5881 5881 5880 5880 5880 5880 5880 5880 5880 5881 5881 5881 5881 5882 5882 5883 5884 5885 5886 5886 5887 5888 5890 5892 5893 5894 5895 5897 5898 5899 5900 5902 5902 5902 5903 5903 5903 5903 5903 5903 5904 5903
5882 5881 5881 5880 5880 5880 5879 5880 5880 5880 5880 5880 5880 5881 5881 5881 5882 5883 5884 5885 5886 5887 5888 5890 5892 5893 5894 5895 5897 5898 5899 5900 5901 5902 5903 5903 5903 5903 5904 5904 5904 5904 5904
5881 5881 5880 5880 5880 5879 5879 5879 5879 5879 5880 5880 5880 5880 5881 5881 5882 5882 5884 5885 5886 5887 5888 5890 5892 5893 5894 5896 5897 5898 5899 5901 5901 5902 5903 5903 5903 5904 5904 5904 5904 5904 5904
5881 5880 5880 5880 5879 5879 5879 5879 5879 5879 5880 5880 5880 5880 5880 5881 5881 5882 5883 5884 5885 5887 5888 5890 5891 5893 5894 5896 5897 5898 5899 5900 5901 5902 5903 5903 5904 5904 5904 5904 5904 5904 5904
5881 5880 5880 5879 5879 5879 5879 5878 5879 5879 5879 5879 5880 5879 5880 5880 5880 5881 5882 5883 5885 5886 5888 5889 5891 5893 5895 5896 5897 5898 5899 5900 5901 5902 5903 5903 5904 5904 5904 5904 5904 5904 5904
5880 5880 5879 5879 5879 5879 5878 5878 5878 5879 5879 5879 5879 5879 5879 5879 5880 5880 5881 5883 5884 5886 5888 5890 5892 5894 5895 5896 5897 5898 5899 5900 5901 5901 5902 5903 5904 5904 5904 5904 5904 5905 5905
5880 5880 5879 5879 5878 5878 5878 5878 5878 5878 5878 5878 5878 5878 5878 5878 5879 5880 5881 5882 5884 5886 5888 5890 5892 5894 5895 5896 5897 5898 5898 5899 5900 5901 5902 5903 5904 5904 5904 5904 5904 5904 5904
5880 5880 5879 5879 5878 5878 5878 5877 5877 5877 5877 5877 5877 5878 5878 5877 5878 5879 5880 5882 5884 5886 5888 5890 5892 5893 5895 5896 5897 5897 5898 5899 5901 5902 5902 5903 5903 5903 5904 5904 5904 5904 5904
5881 5880 5879 5878 5878 5877 5877 5877 5877 5876 5877 5877 5877 5877 5877 5877 5877 5879 5880 5882 5884 5886 5888 5890 5892 5893 5895 5896 5896 5897 5898 5899 5900 5901 5902 5902 5903 5903 5903 5903 5904 5904 5904
5881 5880 5879 5879 5878 5877 5876 5876 5876 5875 5876 5876 5877 5877 5878 5878 5878 5879 5880 5881 5883 5886 5888 5890 5891 5893 5894 5895 5896 5897 5898 5899 5900 5901 5901 5902 5902 5903 5903 5903 5903 5904 5904
5882 5881 5880 5879 5878 5877 5876 5876 5875 5874 5875 5876 5877 5877 5877 5878 5879 5879 5880 5881 5883 5885 5887 5889 5891 5892 5893 5894 5895 5896 5897 5898 5899 5900 5901 5901 5902 5902 5902 5903 5903 5903 5903
5883 5882 5881 5880 5879 5878 5877 5876 5876 5875 5875 5876 5876 5877 5877 5878 5879 5879 5880 5881 5883 5885 5887 5889 5890 5891 5892 5894 5894 5896 5897 5898 5898 5900 5900 5901 5901 5902 5902 5902 5902 5903 5903
5884 5883 5882 5881 5880 5879 5878 5877 5877 5876 5876 5876 5877 5878 5878 5878 5879 5880 5880 5882 5883 5885 5887 5888 5890 5891 5893 5894 5895 5896 5896 5897 5898 5899 5899 5900 5900 5901 5901 5901 5902 5902 5902
5885 5884 5883 5882 5880 5879 5878 5878 5877 5877 5877 5877 5878 5878 5879 5879 5880 5881 5882 5882 5883 5884 5886 5888 5889 5891 5892 5893 5894 5895 5896 5896 5897 5898 5898 5899 5899 5900 5901 5901 5901 5902 5901
5887 5885 5884 5883 5882 5881 5880 5879 5879 5878 5878 5878 5878 5879 5879 5880 5881 5882 5883 5883 5884 5884 5885 5887 5889 5891 5892 5893 5894 5895 5895 5896 5896 5897 5897 5898 5899 5899 5900 5900 5900 5901 5900
5888 5886 5885 5884 5883 5882 5881 5881 5880 5879 5879 5879 5879 5880 5881 5881 5882 5883 5884 5884 5885 5885 5886 5887 5889 5891 5892 5893 5894 5894 5895 5895 5896 5896 5897 5897 5897 5898 5898 5899 5899 5899 5899
5889 5888 5887 5886 5885 5883 5883 5882 5882 5881 5880 5880 5880 5881 5882 5882 5883 5884 5885 5886 5886 5887 5888 5888 5890 5891 5892 5893 5893 5894 5894 5895 5895 5896 5896 5896 5896 5897 5897 5897 5897 5897 5898
5890 5889 5888 5887 5886 5885 5884 5884 5883 5882 5882 5881 5881 5882 5883 5884 5884 5885 5886 5887 5887 5888 5889 5889 5890 5891 5892 5892 5893 5893 5893 5894 5894 5894 5895 5895 5895 5895 5895 5895 5896 5896 5896
5891 5890 5889 5888 5887 5886 5886 5885 5885 5884 5883 5883 5883 5883 5884 5885 5886 5886 5887 5887 5888 5888 5889 5890 5891 5891 5891 5892 5892 5892 5892 5893 5893 5893 5893 5893 5894 5894 5894 5894 5894 5895 5895
5893 5892 5891 5890 5889 5888 5887 5887 5887 5886 5886 5885 5886 5886 5886 5886 5887 5888 5888 5888 5889 5889 5890 5890 5891 5891 5891 5892 5891 5891 5891 5892 5892 5892 5892 5892 5892 5892 5892 5892 5893 5893 5893
5895 5894 5892 5891 5890 5889 5889 5889 5889 5888 5888 5888 5888 5888 5888 5888 5888 5889 5889 5889 5890 5890 5890 5890 5891 5891 5891 5891 5891 5891 5891 5891 5891 5891 5891 5891 5891 5891 5891 5891 5890 5890 5890
5895 5895 5894 5893 5892 5891 5890 5890 5890 5890 5890 5890 5889 5889 5889 5889 5889 5889 5890 5890 5890 5890 5890 5890 5890 5890 5890 5890 5890 5890 5890 5890 5890 5889 5889 5889 5889 5890 5889 5889 5888 5888 5888
5896 5895 5895 5894 5893 5892 5892 5891 5891 5891 5891 5891 5891 5890 5890 5890 5890 5890 5890 5890 5890 5890 5890 5890 5890 5890 5889 5889 5889 5889 5889 5889 5889 5889 5888 5888 5888 5888 5887 5886 5886 5885 5885
5896 5896 5895 5895 5894 5893 5893 5892 5892 5892 5892 5892 5891 5891 5891 5891 5891 5891 5890 5890 5890 5890 5890 5889 5889 5889 5888 5888 5888 5888 5888 5888 5888 5887 5887 5886 5886 5886 5886 5885 5884 5883 5883
5897 5896 5895 5895 5894 5894 5893 5893 5892 5892 5892 5892 5892 5891 5891 5891 5891 5890 5890 5890 5889 5889 5889 5888 5888 5888 5887 5887 5887 5886 5886 5886 5886 5886 5885 5885 5884 5884 5884 5883 5882 5881 5880
5897 5896 5895 5895 5895 5894 5894 5893 5893 5893 5892 5892 5892 5891 5891 5891 5890 5890 5890 5889 5889 5888 5888 5887 5887 5886 5886 5886 5885 5884 5884 5884 5884 5883 5883 5882 5882 5881 5881 5880 5879 5878 5877
Wind_Speed
3 3 3 3 2 1 1 1 0 1 1 2 3 4 5 7 9 9 9 8 8 9 9 10 10 9 9 9 9 9 9 9 7 6 6 6 5 5 5 5 4 5 5
3 3 3 3 2 1 1 1 1 1 1 2 3 4 4 6 8 8 8 8 8 9 9 10 9 9 10 10 9 9 9 8 7 7 6 5 5 5 5 5 4 4 5
4 4 4 3 2 1 1 1 1 1 1 1 3 4 4 6 8 9 8 9 9 9 9 10 9 9 10 10 9 9 8 7 7 6 6 6 5 4 5 4 4 4 5
4 4 4 3 2 1 0 1 2 2 2 2 2 2 4 5 6 8 9 9 10 10 10 10 10 10 10 10 10 9 8 7 7 6 6 5 5 5 4 4 4 4 4
5 4 3 2 2 2 0 1 2 2 3 3 3 2 4 6 7 8 9 10 10 10 10 11 11 10 10 10 9 9 8 7 7 7 7 5 5 4 4 4 4 4 4
5 4 3 2 1 1 1 1 1 2 3 3 4 3 3 5 7 8 10 10 10 10 11 11 11 10 10 9 9 8 9 8 7 6 6 5 5 4 4 5 4 4 4
5 4 3 2 2 1 1 1 1 2 2 3 3 3 3 5 7 8 9 10 10 10 11 11 10 10 9 8 8 8 8 8 7 7 6 6 5 4 4 4 4 4 3
5 4 4 3 2 1 0 1 2 2 2 3 3 3 4 5 7 9 10 11 10 11 11 11 10 10 8 8 8 8 8 8 7 7 6 6 5 5 4 4 4 3 3
6 5 5 4 2 2 1 0 2 2 2 3 4 4 4 5 7 8 9 11 11 11 11 11 10 9 8 8 8 8 7 8 6 6 6 6 5 5 5 5 4 3 3
7 6 6 5 4 3 2 2 1 2 2 3 4 4 4 5 6 7 9 11 12 11 11 10 10 9 8 8 8 8 8 7 6 6 7 6 5 5 5 4 4 3 3
8 7 6 6 6 5 4 3 2 3 4 4 4 4 5 5 5 6 8 10 11 11 10 10 10 9 9 9 8 8 8 7 6 6 6 6 6 5 6 5 4 4 4
10 8 7 7 6 5 5 4 4 4 5 5 5 5 5 6 6 7 8 9 10 11 11 10 9 9 9 9 9 8 7 7 6 6 6 6 6 6 6 5 4 4 4
10 9 8 7 6 5 5 5 5 6 6 6 6 6 6 6 7 8 8 8 9 10 10 10 9 9 9 9 8 7 6 6 5 6 6 6 6 6 6 5 4 4 4
10 9 8 8 7 6 6 6 6 7 6 6 6 6 6 6 8 8 7 7 8 8 9 8 8 7 7 7 7 6 6 6 6 6 6 6 6 6 6 5 5 4 5
11 10 9 8 8 7 7 7 6 6 6 6 6 6 6 7 7 7 7 7 6 7 8 8 8 7 6 6 6 6 6 6 5 6 6 6 6 6 6 6 5 6 6
11 10 10 9 9 8 8 8 8 7 7 6 6 6 7 7 6 7 6 6 6 7 7 7 7 6 7 7 7 7 6 6 6 6 6 6 7 6 6 7 6 6 6
11 10 10 10 10 10 9 9 8 8 7 7 7 6 6 6 6 7 7 6 6 7 7 6 6 6 5 6 6 7 6 5 6 6 6 7 7 7 7 8 7 7 7
11 10 10 11 10 11 10 9 9 8 8 7 6 6 7 6 5 6 6 6 6 5 6 6 5 5 5 5 6 6 6 6 6 6 6 7 7 7 8 7 7 7 7
11 11 11 11 10 10 11 10 9 9 8 7 7 7 6 6 5 5 5 5 5 5 5 4 4 4 5 5 6 6 7 7 7 7 7 7 8 8 8 7 6 7 8
10 10 10 11 11 10 10 10 9 8 8 7 7 7 6 6 6 5 4 4 4 4 4 4 3 3 3 4 5 5 7 8 7 6 6 7 8 8 7 6 7 7 8
10 9 9 10 10 10 9 9 9 8 8 7 6 6 6 5 5 4 3 2 3 3 3 3 3 3 4 4 4 4 4 5 6 5 6 7 7 6 7 7 8 9 9
9 9 8 8 9 9 9 9 8 8 7 7 6 6 6 5 4 4 3 2 1 2 2 2 3 3 3 4 4 4 4 4 5 5 5 5 6 6 7 8 9 10 11
8 8 8 7 7 7 7 7 7 7 7 6 5 5 5 4 4 4 3 3 2 1 1 2 2 3 3 3 4 4 4 5 5 5 5 6 6 7 8 9 10 10 11
7 7 7 7 7 7 7 7 7 6 5 5 4 4 3 3 3 3 3 3 2 1 1 1 2 3 3 3 4 3 3 4 4 5 5 6 7 8 8 8 9 10 11
6 6 6 6 6 6 5 6 6 6 5 4 4 3 2 2 2 2 3 2 2 1 1 2 2 2 3 3 3 3 4 5 5 5 5 7 8 8 9 9 9 10 11
4 4 4 4 4 3 3 4 4 4 4 4 3 3 2 2 2 2 2 2 2 2 2 2 3 2 3 3 4 4 4 6 6 7 6 7 8 9 9 10 10 11 11
Wind_Direction
3 353 355 358 357 338 295 319 221 177 209 209 201 196 196 201 195 188 183 180 178 179 177 174 176 180 179 171 169 171 172 176 178 176 175 175 172 167 166 164 158 147 144
18 10 1 8 1 345 299 258 230 205 237 219 210 199 195 193 189 181 180 181 178 177 175 177 175 175 181 177 172 173 175 179 179 172 170 172 174 172 167 166 157 149 149
17 11 10 2 356 346 279 238 225 213 233 218 197 191 194 188 190 184 181 179 177 178 180 180 175 176 173 175 175 177 179 182 184 176 176 179 176 167 163 170 164 158 164
15 10 7 355 350 359 183 198 212 215 215 212 189 173 194 191 193 191 183 181 179 179 181 179 174 174 173 175 174 175 179 182 182 179 176 179 177 172 165 167 165 166 166
9 7 8 11 16 24 8 190 195 196 206 204 205 191 198 202 192 186 182 182 182 182 182 180 177 177 175 173 174 174 177 181 183 182 180 180 179 178 180 174 169 167 163
15 17 26 44 55 74 109 143 178 197 203 208 207 204 202 198 187 182 179 180 182 182 180 180 181 182 179 179 179 183 186 189 188 182 179 178 178 176 179 179 180 183 175
29 27 27 44 58 79 119 135 160 162 185 196 204 188 177 183 186 184 181 180 179 179 180 179 181 186 184 184 182 186 186 187 180 183 183 182 182 177 172 175 182 185 187
29 33 44 46 45 38 77 177 171 182 187 183 188 184 181 181 183 183 184 176 177 180 183 182 184 188 188 185 184 185 187 187 183 182 187 186 183 176 181 188 186 186 191
41 51 53 58 41 29 34 154 198 199 187 180 175 177 170 170 168 177 181 180 179 179 182 183 184 187 188 189 191 192 190 192 190 189 192 191 185 182 187 192 196 194 189
36 49 56 60 52 60 71 73 146 190 179 170 168 169 172 174 171 175 178 178 179 181 184 183 184 186 189 189 194 193 190 194 193 200 202 201 196 198 201 207 209 203 186
42 50 59 60 56 66 76 81 108 140 153 152 158 162 169 180 172 167 168 173 179 180 182 184 186 188 188 190 191 192 193 195 194 200 207 211 206 203 207 215 214 208 199
46 51 58 59 58 62 73 84 98 115 135 150 154 152 156 162 165 166 162 169 173 176 178 180 178 181 186 187 186 190 194 192 195 202 211 215 211 213 215 219 217 212 210
44 47 55 59 61 62 71 87 103 113 125 136 142 141 144 152 152 155 156 166 173 175 175 176 178 184 188 192 192 192 197 195 198 210 215 215 218 222 219 220 223 215 215
47 49 52 51 56 63 75 89 102 114 115 120 131 135 139 145 147 146 151 155 165 171 174 176 181 185 192 198 194 193 197 196 201 211 210 213 215 217 220 226 232 229 227
48 50 55 57 57 64 71 82 94 103 104 110 125 133 141 145 147 145 150 154 155 159 173 180 182 186 193 194 195 198 197 193 190 201 208 219 221 225 232 236 240 238 238
49 49 53 59 59 65 72 83 88 92 99 105 115 126 134 138 140 143 146 147 145 151 159 168 175 182 193 195 195 196 195 198 198 207 218 223 220 228 238 240 242 248 242
50 51 57 63 64 68 78 78 85 92 102 109 111 116 122 124 138 148 145 143 144 154 164 171 175 185 197 202 202 199 200 201 201 213 225 224 224 231 238 239 240 248 246
54 58 61 62 63 66 72 74 78 81 95 103 105 113 116 118 130 144 144 144 146 156 170 183 184 187 197 207 208 207 212 218 222 226 233 237 242 245 245 238 247 247 248
55 60 64 60 58 62 70 75 79 79 86 91 94 107 106 108 121 135 135 136 146 152 161 171 174 186 200 211 221 226 231 231 232 243 243 245 243 242 239 244 245 246 251
53 59 64 63 61 62 66 72 77 79 85 93 102 105 102 105 110 112 116 124 134 143 157 166 173 185 208 219 221 227 232 233 231 236 242 238 234 242 245 249 252 256 257
52 58 61 62 61 62 63 67 71 76 82 89 95 96 96 96 92 97 104 116 132 144 168 180 192 209 224 232 231 238 244 246 237 238 238 239 245 247 248 255 260 261 262
46 50 54 56 57 58 60 63 65 68 76 83 86 90 94 91 89 91 90 94 130 154 179 198 213 222 233 246 255 261 256 251 253 259 258 256 252 248 248 254 261 262 262
37 41 44 48 52 53 55 61 63 63 69 78 79 84 88 84 80 74 70 72 92 117 208 236 240 249 266 269 270 275 268 266 268 267 263 263 260 258 260 264 263 263 266
28 33 42 50 52 54 57 59 61 64 62 65 69 68 71 69 67 69 58 52 55 66 18 309 292 290 289 287 287 279 277 282 282 277 275 265 265 267 272 276 277 274 270
26 33 40 46 48 52 56 59 62 61 67 65 55 59 58 45 45 41 34 32 33 26 350 322 318 315 310 304 303 294 285 279 280 279 276 270 273 275 276 275 278 279 278
30 32 30 28 38 50 50 48 53 58 64 57 44 42 34 19 11 4 5 353 333 318 310 315 314 310 305 302 304 302 300 295 288 282 273 269 275 281 285 281 282 280 280